Location: De Har
(53.3413°N, 6.6858°E)
Time: 08:16:36
(UTC+00:00)

Meteor 2-2 Rocket - Pass Details

Date: 22 April 2026
Orbit: 852 x 927 km, 81.3° (Epoch: 15 May)

Event Time Altitude Azimuth Distance (km) Brightness Sun altitude
Exits shadow 01:02:52 38° 166° (SSE) 1,280 4.7 -21.7°
Maximum altitude 01:04:59 66° 98° (E) 931 4.4 -21.6°
Drops below altitude 10° 01:10:35 10° 18° (NNE) 2,497 7.8 -21.2°
Sets 01:13:02 0° 16° (NNE) 3,441 8.8 -21.0°
